Regional Weather Roundup
Issued by NWS Newport/Morehead, NC

Current Version | Previous Version | Graphics & Text | Print | Product List | Glossary Off
Versions: 1 2 3 4 5 6 7 8 9 10 11 12 13 14 15 16 17 18 19 20 21 22 23 24 25 26 27 28 29 30 31 32 33 34 35 36 37 38 39 40 41 42 43 44 45 46 47 48 49 50

000
ASUS42 KMHX 211122
RWRMHX
WEATHER ROUNDUP FOR EASTERN NORTH CAROLINA
NATIONAL WEATHER SERVICE NEWPORT/MOREHEAD CITY NC
600 AM EST SUN DEC 21 2014

NOTE: "FAIR" INDICATES FEW OR NO CLOUDS BELOW 12,000 FEET
WITH NO SIGNIFICANT WEATHER AND/OR OBSTRUCTIONS TO VISIBILITY

NCZ015>017-031-032-045>047-102-103-211200-
NORTH COAST

CITY           SKY/WX    TMP DP  RH WIND       PRES   REMARKS
EDENTON          N/A     31  29  94 CALM      30.30R
ELIZABETH CITY MOCLDY    38  30  73 N8        30.30R
KITTY HAWK     SUNNY     40  33  76 N5        30.27R
MANTEO         CLEAR     39  34  81 NE8       30.29R

$$

NCZ045>047-081-094-103-104-211200-
CENTRAL COAST

CITY           SKY/WX    TMP DP  RH WIND       PRES   REMARKS
FRISCO         CLEAR     43  37  79 N8G17     30.25R
SWANQUARTER      N/A     36 N/A N/A N5        30.24S

$$

NCZ095-097-098-100-101-211200-
SOUTHERN COAST

CITY           SKY/WX    TMP DP  RH WIND       PRES   REMARKS
BEAUFORT       CLOUDY    40  37  89 NE8       30.25R
CEDAR ISLAND     N/A     43 N/A N/A N17       30.30R
JACKSONVILLE   CLOUDY    36  34  92 N7        30.25S
PINEY ISLAND   SUNNY     43  36  76 NE13      30.25R
WILMINGTON     LGT RAIN  38  34  85 NE9       30.24S


$$

NCZ011>013-027>030-043-044-078>080-089-090>093-098-211200-
COASTAL PLAIN

CITY           SKY/WX    TMP DP  RH WIND       PRES   REMARKS
AHOSKIE        CLOUDY    31  29  92 CALM      30.31R
CLINTON        MOCLDY    35  34  96 NE3       30.28R
ELIZABETHTOWN  MOCLDY    36  36 100 CALM      30.26S FOG
GOLDSBORO      CLEAR     32  31  98 CALM      30.27R
GREENVILLE     CLEAR     32  30  93 CALM      30.29R
HAVELOCK       MOCLDY    38  33  82 NE7       30.27R
KENANSVILLE    MOCLDY    33  33  99 CALM      30.29R FOG
KINSTON        NOT AVBL
NEW BERN       PTCLDY    36  32  85 N5        30.28R
RICHLANDS      CLOUDY    36  30  80 N7        30.27R
ROCKY MOUNT    CLEAR     31  29  92 NE3       30.29R
WASHINGTON     CLEAR     31  29  93 NE6       30.29R
WHITEVILLE     CLOUDY    39  34  82 NE3       30.25R

$$

AMZ130-135-150-152-154-156-158-170-250-252-270-ANZ085-086-088-633-658-670-211200-
MARINE OBSERVATIONS

STATION/POSITION TIME  TEMP    WIND        PRES    WAVE   SWELL
                       AIR SEA DIR/SP/G            HT/PER HT/PER
                 (UTC) (F)     (DEG/KT/KT) (MB)    (FT/S) (FT/S)
CHESAPEAKE LIGHT 1100   39      10/ 12/ 13 1026.5
64 E VA BEACH    1100   44 54  350/ 12/ 14 1024.6    2/ 3   2/10
DUCK             1100   42 46   10/  9/ 13 1024.7
2 E DUCK         1100      46                N/A     2/11
10 NE DUCK       1100      52                N/A     2/ 3
OREGON INLET     1100   42 49  360/  8/ 12 1024.8
13E OREGON INLT  1100      52                N/A     3/ 4
HATTERAS CG      1100   45 49   20/ 16/ 20 1024.4
DIAMOND BUOY     1100   49                 1023.7    3/ 4
17 S OCRACOKE    NOT AVBL
CAPE LOOKOUT     1100   43      20/ 13/ 16 1024.0
BEAUFORT LAB     1100   41 51   20/ 10/ 13 1023.0
30 SE NEW RIVER  1100   50 61   40/ 19/ 21 1023.1    5/ 5
5 SE WRIGHTSVLE  NOT AVBL
225 S CAPE HAT   1013   67 71   80/ 21/ 23 1019.5    6/ 6   2/10
41 SE CHARLESTON 1100   61 71   20/ 19/ 23 1020.0    6/ 6   2/ 9

$$


USA.gov is the U.S. government's official web portal to all federal, state and local government web resources and services.